STARLETTE 1 07646U 75010A 26016.42062756 -.00000142 00000+0 -51573-6 0 9998 2 07646 49.8268 343.6469 0205601 281.6696 76.1191 13.82348066573549 LAGEOS 1 1 08820U 76039A 26016.19529797 -.00000013 00000+0 00000+0 0 9990 2 08820 109.8294 127.2998 0044670 334.8095 57.3805 6.38664960903439 AJISAI (EGS) 1 16908U 86061A 26016.60021129 -.00000063 00000+0 24051-3 0 9995 2 16908 50.0077 253.5250 0011298 153.4658 293.4738 12.44514991461513 COSMOS 1989 (ETALON 1) 1 19751U 89001C 26016.23671281 -.00000013 00000+0 00000+0 0 9999 2 19751 64.8544 77.3945 0023445 217.3534 147.0400 2.13156111288133 COSMOS 2024 (ETALON 2) 1 20026U 89039C 26016.29110149 -.00000064 00000+0 00000+0 0 9990 2 20026 65.0286 315.7694 0020446 213.8914 323.5331 2.13204577285262 STELLA 1 22824U 93061B 26016.58790496 -.00000028 00000+0 69359-5 0 9997 2 22824 98.7954 80.1476 0005715 326.5968 139.9590 14.27465393683147 LARETS 1 27944U 03042F 26016.57616344 .00000039 00000+0 16994-4 0 9990 2 27944 98.3926 175.7670 0012965 144.7274 215.4788 14.63831490191184 LARES 1 38077U 12006A 26016.61813739 -.00000046 00000+0 -43202-4 0 9993 2 38077 69.4877 191.1385 0009482 200.5383 159.5264 12.54932243638059 LARES-2 1 53105U 22080A 26015.40787467 -.00000019 00000+0 00000+0 0 9992 2 53105 70.1803 357.7142 0005288 8.2766 351.7892 6.38965098 81903